Kahului, HI

8:55 AM HST on September 30, 2016 (GMT -1000)
Kahului

Weather History for PHOG - January, 2013

Change the Weather History Date:

Sunday, January 27, 2013

  Actual Average Record
Temperature  
Mean Temperature 71 °F 72 °F  
Max Temperature 83 °F 81 °F 86 °F (2016)
Min Temperature 59 °F 63 °F 51 °F (1969)
Degree Days  
Heating Degree Days 0 0  
Month to date heating degree days 0 0  
Since 1 July heating degree days 0 0  
Cooling Degree Days 6 7  
Month to date cooling degree days 202 189  
Year to date cooling degree days 202 189  
Growing Degree Days 20 (Base 50)    
Moisture  
Dew Point 61 °F    
Average Humidity 69    
Maximum Humidity 90    
Minimum Humidity 47    
Precipitation  
Precipitation T in 0.09 in 2.61 in (1991)
Month to date precipitation 0.97 2.53  
Year to date precipitation 0.97 2.53  
Snow  
Snow 0.00 in - - ()
Month to date snowfall 0.0  
Since 1 July snowfall 0.0  
Snow Depth 0.00 in    
Sea Level Pressure  
Sea Level Pressure 29.97 in    
Wind  
Wind Speed 11 mph (South)    
Max Wind Speed 24 mph    
Max Gust Speed 30 mph    
Visibility 10 miles    
Events Rain    
T = Trace of Precipitation, MM = Missing Value Source: NWS Daily Summary

Daily Weather History Graph

Daily Weather History Graph

Search for Another Location

Airport or City:

Trip Planner

Search our weather history database for the weather conditions in past years. The results will help you decide how hot, cold, wet, or windy it might be!

Date:

Astronomy

Jan. 27, 2013 Rise Set
Actual Time 7:03 AM HST 6:13 PM HST
Civil Twilight 6:40 AM HST 6:36 PM HST
Nautical Twilight 6:13 AM HST 7:03 PM HST
Astronomical Twilight 5:47 AM HST 7:30 PM HST
Moon 7:04 PM HST (1/27) 7:14 AM HST (1/27)
Length of Visible Light 11h 56m
Length of Day
11h 09m
Waxing Gibbous, 99% of the Moon is Illuminated
Jan 27
Waxing Gibbous
Feb 3
Last Quarter
Feb 9
New
Feb 17
First Quarter
Feb 25
Full

Hourly Weather History & Observations

Time (HST) Temp. Heat Index Dew Point Humidity Pressure Visibility Wind Dir Wind Speed Gust Speed Precip Events Conditions
12:54 AM 63.0 °F - 57.9 °F 84% 30.00 in 10.0 mi ESE 9.2 mph - N/A   Clear
1:54 AM 62.1 °F - 57.9 °F 86% 29.98 in 10.0 mi SE 3.5 mph - N/A   Clear
2:54 AM 63.0 °F - 55.9 °F 78% 29.97 in 10.0 mi ESE 6.9 mph - N/A   Clear
3:54 AM 60.1 °F - 55.0 °F 83% 29.96 in 10.0 mi SE 5.8 mph - N/A   Clear
4:54 AM 60.1 °F - 55.0 °F 83% 29.97 in 10.0 mi SSE 6.9 mph - N/A   Clear
5:54 AM 62.1 °F - 57.0 °F 84% 29.98 in 10.0 mi SSE 6.9 mph - N/A   Clear
6:54 AM 61.0 °F - 57.0 °F 87% 30.00 in 10.0 mi South 5.8 mph - N/A   Partly Cloudy
7:54 AM 63.0 °F - 59.0 °F 87% 30.01 in 10.0 mi Calm Calm - N/A   Partly Cloudy
8:54 AM 75.0 °F - 62.1 °F 64% 30.02 in 10.0 mi SSE 5.8 mph - N/A   Partly Cloudy
9:54 AM 79.0 °F - 61.0 °F 54% 30.01 in 10.0 mi South 8.1 mph - N/A   Partly Cloudy
10:54 AM 80.1 °F 81.1 °F 61.0 °F 52% 30.00 in 10.0 mi SSW 10.4 mph - N/A   Partly Cloudy
11:54 AM 82.0 °F 82.4 °F 60.1 °F 47% 29.98 in 10.0 mi SSW 16.1 mph 25.3 mph 0.00 in Rain Light Rain
12:54 PM 81.0 °F 81.7 °F 61.0 °F 50% 29.94 in 10.0 mi SSW 18.4 mph 26.5 mph 0.00 in   Clear
1:54 PM 81.0 °F 82.2 °F 63.0 °F 54% 29.92 in 10.0 mi SSW 20.7 mph 27.6 mph 0.00 in   Partly Cloudy
2:54 PM 80.1 °F 81.7 °F 64.0 °F 58% 29.90 in 10.0 mi SSW 18.4 mph 27.6 mph N/A   Clear
3:54 PM 78.1 °F - 64.9 °F 64% 29.91 in 10.0 mi SSW 19.6 mph - 0.00 in   Scattered Clouds
4:54 PM 78.1 °F - 64.0 °F 62% 29.92 in 10.0 mi SSW 18.4 mph 25.3 mph 0.00 in Rain Light Rain
5:54 PM 75.0 °F - 64.0 °F 69% 29.94 in 10.0 mi SSW 15.0 mph 20.7 mph 0.00 in   Scattered Clouds
6:54 PM 75.0 °F - 64.0 °F 69% 29.95 in 10.0 mi SW 13.8 mph - 0.00 in   Scattered Clouds
7:54 PM 73.9 °F - 64.0 °F 71% 29.96 in 10.0 mi SSW 15.0 mph - N/A   Scattered Clouds
8:54 PM 73.9 °F - 64.0 °F 71% 29.99 in 10.0 mi SSW 9.2 mph - N/A   Scattered Clouds
9:54 PM 73.9 °F - 64.9 °F 73% 29.99 in 10.0 mi SSW 8.1 mph - N/A   Scattered Clouds
10:54 PM 73.0 °F - 66.0 °F 79% 29.99 in 10.0 mi South 6.9 mph - N/A   Scattered Clouds
11:54 PM 73.0 °F - 66.0 °F 79% 29.98 in 10.0 mi SSW 9.2 mph - N/A   Partly Cloudy